Find Starlink 37997

NORAD ID: 69682 Int'l Des: 2026-145 Owner: SPXS Country: US Constellation: starlink operational
LEOCIRCULARRETROGRADE

当前视图

正在加载3D地球...

About Starlink 37997

Starlink 37997 (NORAD 69682) is a starlink constellation satellite (v2 mini) launched Jun 25, 2026 by SPXS of US. It operates in LEO, CIRCULAR, RETROGRADE orbit with a mass of 575.00 kg.

即将过境

Passes for default location (London). Set your location on the main map for personalized predictions.

高度历史

Loading altitude history...

两行轨道根数

1 69682U 26145F 26235.84921271 .00013667 00000-0 42491-3 0 9997
2 69682 97.2851 82.8755 0001153 82.3370 277.8004 15.33444500 10551
Epoch: Aug 23, 2026 • Age: 13 hours

当前状态

高度 478.1 km
远地点 / 近地点 N/A
速度 7.63 km/s
星下点 79.50°N, 165.96°W
发射日期 Jun 25, 2026
运行时间 0.1 years
类型 internet

技术详情

分类 Payload
质量 575.00 kg
干质量 530.00 kg
总质量 575.00 kg
长度 0.30 m
直径 4.10 m
跨度 29.00 m
形状 Box + pan
制造商 SPXS
平台类型 Starlink V2MO
阶段状态 In Orbit
所有者/国家 SPXS/US

Most Searched